Dewpoint
47 47 49 51 50 49 46 47 48 49 49 49 49 49 50 51 52 55 53 53 54 54 54 55 54 51 46 40 42 48 51 49 39 35 29 28 26 24 23 23 25 25 27 27 26 25 25
47 48 49 48 51 50 47 48 48 49 50 50 49 50 50 50 50 53 54 53 54 53 54 52 49 46 40 36 45 49 50 41 35 31 30 29 26 26 25 26 24 28 26 25 25 25 26
49 47 47 49 50 51 48 47 48 50 50 50 50 50 50 50 49 50 50 52 53 53 51 47 46 42 40 39 48 49 44 36 35 32 30 32 30 26 27 25 27 23 20 22 24 25 23
50 50 48 48 49 50 50 47 49 50 50 50 50 48 49 49 50 50 47 51 52 52 52 48 46 42 39 47 49 44 40 33 35 33 31 31 30 28 26 26 23 19 18 12 22 23 26
51 50 49 49 50 48 50 47 48 50 50 51 51 50 49 49 49 49 49 48 49 52 51 49 43 40 38 46 40 43 39 32 33 33 33 31 30 28 26 18 15 20 10 12 19 25 25
50 48 49 49 50 49 48 49 49 50 51 51 51 51 50 51 49 48 45 46 45 47 46 45 42 37 41 37 41 41 39 34 29 28 26 26 26 22 21 16 7 12 14 17 15 24 25
50 49 49 49 49 49 50 48 49 50 50 50 50 50 49 51 49 47 42 39 36 34 39 37 37 37 38 40 40 37 40 31 31 29 22 26 18 18 21 19 19 21 19 16 23 28 27
52 50 47 48 48 49 49 48 48 50 50 50 50 49 48 49 48 43 43 40 42 41 31 37 37 38 40 40 31 34 36 28 27 24 26 23 22 25 25 23 20 19 17 20 24 27 27
51 50 49 47 48 48 48 49 48 49 50 49 48 48 49 47 45 41 41 42 45 43 30 29 36 35 37 35 33 33 35 31 27 25 24 22 25 27 24 24 22 27 22 24 24 28 27
50 51 49 49 49 48 48 48 49 50 50 49 48 48 48 46 36 42 38 43 43 42 24 26 30 33 34 35 29 36 36 31 28 24 25 25 27 25 25 26 25 19 30 29 28 24 10
51 50 50 49 49 49 49 49 49 49 50 50 48 49 47 44 39 36 41 43 43 30 16 24 30 35 35 30 30 31 37 32 29 29 21 23 29 28 27 28 29 26 30 30 29 26 24
52 50 49 50 49 49 49 49 50 50 50 50 49 48 43 39 41 42 43 43 30 16 16 24 30 31 30 32 32 33 32 34 33 30 30 29 30 30 29 30 30 31 29 26 27 24 11
52 51 50 50 49 49 49 49 49 50 50 50 49 48 43 41 36 43 43 31 16 17 22 25 28 31 30 30 30 31 30 29 26 18 24 28 30 32 31 29 31 27 23 5 3 13 -1
52 52 51 51 50 48 49 49 49 50 50 50 49 46 43 42 43 43 33 24 18 24 26 29 30 30 28 30 30 30 28 27 30 26 24 21 17 29 30 30 28 30 25 12 -1 8 16
52 52 51 51 50 48 48 48 49 50 51 49 44 41 40 41 43 39 29 23 23 26 29 29 31 25 26 28 28 31 30 28 31 31 21 24 25 33 31 34 31 31 26 27 24 24 22
51 53 52 51 50 49 47 48 48 49 51 46 38 39 39 43 43 35 29 28 30 32 33 31 25 26 24 26 26 29 29 31 31 33 32 29 25 31 32 34 35 31 33 26 26 18 15
51 53 52 52 51 50 48 47 48 48 50 46 38 27 35 44 39 32 27 29 32 33 34 31 29 27 27 27 27 27 29 32 33 33 32 31 27 28 34 31 30 32 30 30 27 24 20
51 52 53 52 52 50 49 47 47 48 50 41 32 19 36 38 26 30 29 31 33 32 34 33 32 30 28 28 28 28 28 30 35 33 30 32 27 24 29 31 32 32 29 29 22 21 25
49 51 50 52 52 51 49 48 47 48 47 37 30 30 36 32 18 27 32 32 33 32 32 32 31 30 30 27 25 27 26 34 35 33 31 32 27 13 19 26 32 30 31 30 27 26 24
50 49 50 51 52 51 49 48 47 47 47 39 26 13 27 34 32 29 29 29 28 33 32 32 31 30 29 27 27 24 23 32 36 35 36 33 28 21 -1 3 27 28 31 31 29 27 24
50 49 48 50 52 51 49 48 47 47 44 35 31 27 33 22 28 31 31 30 29 28 32 33 30 30 27 22 23 24 24 26 34 35 34 31 25 25 25 25 25 25 24 29 30 29 25
48 49 49 50 51 51 49 47 46 46 41 34 24 25 33 30 31 29 28 27 28 28 31 29 28 29 30 25 22 20 25 26 22 32 32 32 25 26 24 24 24 23 25 26 27 30 30
50 50 50 50 50 52 49 47 46 45 37 31 36 36 28 32 29 25 23 26 28 30 29 30 31 29 29 29 30 29 28 28 26 29 30 28 28 24 16 22 22 13 16 23 24 27 28
51 50 51 51 51 52 51 48 46 45 39 37 38 33 22 21 29 25 27 29 28 31 29 31 32 30 30 34 32 31 32 32 31 30 30 27 26 25 21 22 -1 6 17 19 21 21 26
52 51 51 52 52 52 52 49 46 45 41 37 38 32 26 28 22 24 24 24 27 27 28 30 31 33 34 30 26 20 13 22 29 31 30 29 26 22 20 21 17 11 18 19 18 10 19
53 53 52 52 52 53 53 52 47 45 42 37 37 37 31 28 29 24 23 25 23 22 25 28 33 35 32 28 24 14 5 6 14 25 30 30 28 24 23 19 5 6 16 24 21 6 11
53 54 54 53 53 53 53 52 51 46 43 38 37 38 34 30 31 27 26 25 27 28 24 28 30 32 32 28 22 18 13 19 11 15 26 28 28 26 24 22 22 24 22 22 11 5 13
53 53 54 53 53 53 53 53 52 49 44 39 38 38 34 32 33 31 29 28 30 30 25 26 27 30 30 25 23 20 21 20 19 17 25 24 24 24 24 22 17 25 24 15 14 17 20
50 50 51 52 53 53 53 53 52 51 46 41 39 39 38 34 37 33 33 32 31 31 30 29 27 29 31 26 26 26 24 24 21 14 24 18 23 22 24 20 23 25 24 23 23 23 23
Wind_Speed
18 20 20 20 20 20 20 21 22 22 24 27 26 28 28 31 33 25 26 27 26 30 23 32 34 24 12 12 9 14 23 15 1 5 8 8 9 7 7 7 4 9 4 6 5 8 7
20 18 19 20 21 20 20 21 22 22 24 25 26 27 28 27 30 26 25 30 28 31 30 31 27 21 16 26 13 15 20 2 5 9 7 7 5 9 10 6 6 5 9 5 8 6 6
20 20 19 20 20 21 20 20 21 22 23 24 25 25 24 22 24 22 24 26 29 28 27 26 26 25 36 9 12 22 9 4 2 8 10 5 7 6 5 11 4 4 7 5 8 5 4
20 20 20 19 19 20 19 19 21 22 22 23 22 23 25 24 22 19 10 20 21 20 16 22 21 27 13 9 18 10 8 17 13 15 16 10 15 13 5 7 6 5 5 5 2 3 4
21 21 21 19 19 19 19 18 20 22 22 21 20 20 23 24 21 16 18 15 20 16 11 11 18 15 6 23 8 13 7 8 9 11 11 8 8 6 5 8 6 7 5 3 1 2 3
22 23 22 20 19 19 18 18 18 20 21 21 19 19 20 22 25 21 10 7 20 15 6 7 9 15 2 4 6 8 6 9 13 7 8 10 7 8 7 4 8 4 3 1 1 4 3
21 22 22 20 20 20 19 18 18 18 19 22 19 19 20 20 18 18 10 6 9 13 21 15 6 10 2 6 4 13 6 6 7 12 6 7 15 14 7 4 5 7 5 3 2 3 5
21 22 22 21 20 20 19 18 17 17 17 17 19 19 19 21 15 18 9 9 4 2 16 15 11 7 3 3 14 21 8 6 6 9 3 8 11 1 2 8 11 7 5 3 2 2 5
21 21 22 21 20 20 19 18 17 18 16 14 15 16 16 19 11 9 11 6 1 1 7 13 7 9 6 10 8 14 8 5 11 12 10 9 2 1 6 9 11 9 5 3 2 9 2
20 21 22 21 21 20 19 19 18 18 17 14 11 15 16 12 4 3 4 2 3 1 8 17 13 8 7 7 9 6 6 4 6 11 8 10 4 6 9 7 3 3 1 2 4 7 5
20 21 22 22 21 20 20 19 18 17 17 15 12 9 10 12 1 4 4 7 2 1 7 15 9 6 8 8 1 11 6 9 7 5 2 1 4 6 6 2 2 3 1 2 2 3 5
19 20 21 23 22 21 21 21 20 17 16 15 13 12 4 5 4 2 3 3 2 4 7 5 5 9 8 9 5 5 7 9 2 12 13 4 1 3 2 2 4 5 4 5 4 2 3
18 20 21 22 23 22 21 21 22 20 16 12 11 10 3 2 3 4 4 4 4 10 3 4 4 5 4 8 8 7 5 7 3 6 4 5 3 2 1 4 2 4 3 3 2 1 5
17 19 20 22 23 24 24 24 24 22 18 15 7 2 1 3 4 4 4 5 15 3 4 1 1 4 6 4 3 4 2 3 7 5 5 4 3 3 2 1 3 2 2 3 4 3 6
16 18 20 21 22 24 24 25 25 23 22 12 2 2 2 2 6 4 5 15 3 3 1 0 3 3 3 2 2 3 3 1 2 1 2 5 1 1 2 1 2 2 2 2 4 1 4
14 16 18 20 22 23 25 25 26 24 22 11 2 2 4 4 3 3 12 7 2 1 3 3 4 3 2 3 2 2 1 2 1 0 1 3 4 3 2 1 2 3 8 3 1 2 6
12 14 17 19 21 22 25 26 27 26 21 5 2 2 2 2 2 11 9 4 4 2 3 2 3 3 3 3 3 1 1 1 3 3 2 2 1 2 1 7 9 4 2 2 2 2 2
12 12 14 17 19 21 24 25 28 27 19 5 2 3 4 3 6 5 5 7 4 2 2 3 1 2 3 5 4 5 5 2 4 4 2 2 2 4 7 1 3 2 5 8 4 5 5
11 11 13 15 18 20 23 26 27 27 14 2 3 3 3 2 4 4 2 2 0 3 3 3 2 3 2 2 3 3 3 3 5 2 1 2 1 2 1 1 1 5 6 6 4 3 10
15 12 14 14 16 19 22 25 27 27 12 3 3 4 7 8 3 5 3 2 2 0 1 1 3 2 2 2 1 2 2 1 5 3 3 2 1 5 6 1 2 6 8 14 15 8 6
15 14 13 13 15 18 21 24 26 27 12 3 6 3 1 4 6 5 3 2 2 2 2 2 2 4 3 3 3 4 3 1 2 3 3 3 4 5 13 19 16 22 23 17 25 26 18
12 13 12 12 13 14 18 22 26 28 10 7 3 2 2 1 1 1 2 3 3 1 3 3 4 2 7 5 6 5 5 5 5 4 7 3 4 2 14 15 8 16 24 26 29 28 32
11 12 14 11 10 11 13 18 22 27 12 5 2 1 3 1 1 2 3 3 3 1 2 2 3 2 7 13 10 11 8 5 4 6 11 5 5 1 8 4 15 19 16 22 15 14 30
11 11 13 13 10 9 10 12 16 20 12 3 1 2 3 2 2 3 3 4 4 5 4 2 5 4 2 2 6 3 4 9 9 11 7 6 5 2 10 12 5 2 2 7 19 16 27
12 12 12 11 9 8 8 8 10 12 11 6 1 2 2 4 4 5 7 6 3 3 5 6 6 4 1 4 4 7 2 2 0 1 12 5 7 4 5 5 17 7 1 3 7 12 21
12 13 13 11 9 7 6 6 5 8 9 4 3 2 2 2 3 1 2 3 4 4 2 4 1 2 3 3 1 3 4 2 2 3 7 9 3 7 1 4 6 2 2 0 1 10 4
11 12 13 13 11 9 7 6 4 1 4 3 1 2 2 2 3 3 3 4 3 1 3 3 3 3 1 5 5 7 5 3 3 4 5 7 7 20 15 8 16 13 11 2 4 5 3
9 11 13 15 14 13 11 10 9 5 4 2 0 1 1 2 8 7 4 5 3 2 3 1 1 1 3 6 5 5 6 4 3 5 8 12 13 9 9 8 11 9 6 6 3 4 6
5 6 8 13 17 16 15 13 12 10 9 6 2 2 2 4 7 4 7 8 6 5 6 4 3 2 6 4 4 1 5 4 6 5 4 7 11 8 18 12 5 6 9 8 6 13 15
Wind_Direction
20 14 9 9 7 12 8 6 3 5 5 6 8 14 13 21 24 41 61 59 66 58 101 113 113 112 98 63 20 321 327 316 87 112 101 111 99 105 103 105 77 87 117 65 65 63 60
16 18 12 6 7 10 9 8 2 6 3 9 12 19 22 31 32 34 49 56 64 61 91 105 109 117 78 73 292 309 315 318 95 99 87 91 117 117 93 72 70 100 96 82 49 41 43
14 15 16 7 5 6 12 7 2 4 3 9 15 12 11 13 13 27 37 55 55 55 68 89 92 89 64 77 309 312 342 42 44 107 88 68 118 82 122 99 121 94 91 56 31 19 35
17 18 14 7 6 6 7 8 360 3 2 7 16 15 13 10 7 19 55 69 66 63 52 66 66 69 81 287 304 342 4 59 54 74 92 96 89 88 55 116 47 71 68 149 337 5 3
18 18 12 11 4 6 5 7 2 1 358 5 7 6 3 9 9 1 5 85 95 72 57 11 49 83 41 312 18 340 18 75 67 68 64 74 70 80 60 90 76 27 171 170 101 34 347
18 18 15 14 10 6 7 4 4 360 357 357 2 0 0 5 11 8 345 347 72 102 51 30 67 71 320 346 319 335 354 48 64 57 51 40 60 86 49 73 181 169 133 119 172 353 342
18 20 15 12 11 9 3 5 1 2 358 351 358 357 356 3 5 19 12 13 26 38 49 76 81 94 126 281 321 24 0 42 41 54 70 25 91 95 84 83 114 127 115 105 33 26 327
12 16 17 13 14 13 9 5 1 1 358 356 348 355 351 354 10 24 40 67 38 305 60 42 64 61 45 329 55 13 16 72 71 97 45 65 84 91 82 90 96 82 98 22 296 338 341
10 15 15 12 12 11 9 6 0 356 360 358 351 351 348 342 357 40 54 61 244 45 69 29 21 28 355 22 45 5 25 73 76 73 78 97 108 15 104 76 88 54 83 32 320 324 71
12 10 13 11 8 10 7 5 2 358 354 357 359 349 348 344 23 357 62 343 323 109 71 1 1 26 3 349 43 10 16 66 56 100 79 73 7 102 95 81 86 120 77 43 4 4 289
11 9 9 8 7 6 3 2 359 358 354 351 351 357 349 27 109 51 328 322 296 139 66 331 348 317 360 64 3 14 13 42 88 83 97 92 79 92 77 70 64 132 111 54 58 41 342
11 9 7 5 5 4 2 357 356 356 355 347 345 347 11 358 24 14 351 340 350 38 63 9 353 4 20 24 36 343 32 49 109 70 63 83 58 56 117 78 72 119 90 55 63 57 272
11 11 5 4 1 2 0 357 353 353 349 344 336 338 21 120 337 346 353 27 54 67 318 15 354 358 48 35 37 33 40 40 96 116 61 10 11 334 127 95 77 82 81 309 303 328 242
12 11 6 2 1 358 358 357 354 349 344 331 329 326 90 98 141 126 47 53 65 277 296 267 357 1 50 32 57 28 59 41 40 70 121 142 163 189 173 174 157 87 149 168 262 277 292
13 9 6 1 359 358 357 355 354 349 344 348 67 25 79 18 154 134 86 50 82 196 320 201 325 77 40 57 119 91 61 83 3 21 143 143 124 273 200 349 152 165 121 162 104 212 291
8 8 3 0 359 356 354 355 354 352 351 354 56 34 354 336 146 100 72 97 84 228 353 17 359 1 38 353 47 62 93 180 171 245 87 187 127 220 187 103 43 205 149 118 105 249 276
359 11 2 359 358 355 354 352 353 352 347 337 52 56 344 10 124 58 82 98 143 149 101 57 21 357 24 359 3 21 117 176 178 152 92 133 92 184 99 211 191 145 201 93 119 168 256
354 3 3 357 355 352 353 353 353 353 352 43 60 57 337 106 33 45 98 144 160 142 109 128 88 16 28 356 2 10 9 340 157 142 66 32 103 217 210 52 193 184 191 163 181 209 223
346 351 359 357 352 352 354 353 355 356 11 30 51 324 341 59 83 77 114 108 42 150 170 155 129 112 85 31 16 23 7 351 147 131 86 172 59 306 324 50 78 226 203 186 133 135 216
335 349 353 357 357 354 355 355 354 357 360 68 53 4 4 49 78 105 127 151 146 352 272 210 169 158 143 132 155 299 322 97 190 173 130 127 212 234 247 216 170 235 223 207 199 220 224
337 339 345 357 1 356 357 356 355 356 358 71 31 62 63 16 26 81 74 161 165 222 223 198 234 233 182 184 195 207 211 236 168 178 129 146 256 237 266 269 260 258 255 230 217 223 225
322 338 347 349 354 360 1 358 357 358 356 75 65 50 52 61 341 90 5 209 231 269 204 270 227 196 200 226 217 216 196 207 220 174 175 169 254 272 285 271 256 267 254 237 232 235 244
304 322 329 334 349 3 6 3 3 5 16 71 58 90 116 358 358 145 210 207 203 174 226 231 245 272 255 253 252 257 240 264 228 187 190 184 216 311 271 298 310 283 253 213 215 225 226
291 303 315 331 344 357 2 8 11 16 37 88 78 90 62 275 213 239 201 192 234 227 248 246 187 200 256 335 304 271 262 250 235 233 193 174 173 247 294 334 267 295 226 196 211 242 221
280 285 295 312 323 337 348 0 14 20 30 71 81 47 77 285 238 267 240 233 247 249 234 249 241 211 28 17 306 311 300 265 252 163 220 171 174 265 272 277 292 314 55 135 188 289 236
267 275 282 294 308 306 314 329 356 14 27 74 67 92 62 312 246 248 249 237 248 224 236 211 216 170 109 135 181 256 256 265 230 147 56 160 140 183 14 295 280 301 358 11 178 313 332
257 261 268 275 280 286 279 283 277 313 40 76 94 131 92 292 269 165 254 274 176 209 270 284 180 170 129 170 196 221 255 211 233 217 183 140 181 211 220 248 278 256 225 344 320 319 344
252 256 253 259 261 263 262 258 252 217 165 110 282 198 124 258 274 205 210 202 225 208 237 207 317 218 139 197 198 211 216 228 252 195 180 188 172 193 193 217 272 181 109 196 247 288 308
26 6 321 283 268 261 254 242 237 219 188 166 227 204 172 213 268 224 237 235 216 201 201 181 245 191 211 178 220 206 241 238 208 247 166 238 204 193 197 221 230 204 247 252 272 293 291